Location: Unspecified
(27.7290°N, 0.0000°E)
Time: 02:24:01
(UTC+00:00)

UNISAT 6 - Visible Passes

Search period start: 04 April 2026 00:00
Search period end: 14 April 2026 00:00
Orbit: 574 x 636 km, 97.8° (Epoch: 28 March)

Date Brightness Start Highest point End Pass type
(mag) Time Alt. Az. Time Alt. Az. Time Alt. Az.
7 Apr ? 03:09:12 11° N 03:09:12 11° N 03:09:25 10° N visible
8 Apr ? 03:21:38 13° N 03:21:38 13° N 03:22:04 10° N visible
9 Apr ? 03:34:04 13° NNW 03:34:04 13° NNW 03:34:37 10° NNW visible
10 Apr ? 03:46:30 13° NNW 03:46:30 13° NNW 03:47:02 10° NNW visible
11 Apr ? 03:58:55 12° NNW 03:58:55 12° NNW 03:59:20 10° NNW visible
12 Apr ? 02:34:31 13° NE 02:34:31 13° NE 02:35:18 10° NNE visible
12 Apr ? 04:11:21 11° NW 04:11:21 11° NW 04:11:28 10° NW visible
13 Apr ? 02:46:56 17° NNE 02:46:56 17° NNE 02:48:18 10° NNE visible
